Time,TemperatureF,DewpointF,PressureIn,WindDirection,WindDirectionDegrees,WindSpeedMPH,WindSpeedGustMPH,Humidity,HourlyPrecipIn,Conditions,Clouds,dailyrainin,SolarRadiationWatts/m^2,SoftwareType,DateUTC
2013-08-27 00:00:00,76.0,72.0,-100.00,SSW,202,4.0,-999.0,85,-99.99,,,-99.99,0.000000,,2013-08-27 04:00:00,
2013-08-27 00:47:00,76.0,72.0,-100.00,SSW,202,4.0,-999.0,85,-99.99,,,-99.99,0.000000,,2013-08-27 04:47:00,
2013-08-27 00:54:00,76.0,72.0,-100.00,SSW,202,4.0,-999.0,85,-99.99,,,-99.99,0.000000,,2013-08-27 04:54:00,
2013-08-27 01:00:00,75.0,72.0,-100.00,SSW,202,2.0,-999.0,90,-99.99,,,-99.99,0.000000,,2013-08-27 05:00:00,
2013-08-27 01:43:00,75.0,72.0,-100.00,SSW,202,2.0,-999.0,90,-99.99,,,-99.99,0.000000,,2013-08-27 05:43:00,
2013-08-27 01:52:00,75.0,72.0,-100.00,SSW,202,2.0,-999.0,90,-99.99,,,-99.99,0.000000,,2013-08-27 05:52:00,
2013-08-27 02:00:00,74.0,71.0,-100.00,SSW,202,2.0,-999.0,91,-99.99,,,-99.99,0.000000,,2013-08-27 06:00:00,
2013-08-27 02:42:00,74.0,71.0,-100.00,SSW,202,2.0,-999.0,91,-99.99,,,-99.99,0.000000,,2013-08-27 06:42:00,
2013-08-27 02:52:00,74.0,71.0,-100.00,SSW,202,2.0,-999.0,91,-99.99,,,-99.99,0.000000,,2013-08-27 06:52:00,
2013-08-27 03:00:00,75.0,71.0,-100.00,SW,225,3.0,-999.0,87,-99.99,,,-99.99,0.000000,,2013-08-27 07:00:00,
2013-08-27 03:42:00,75.0,71.0,-100.00,SW,225,3.0,-999.0,87,-99.99,,,-99.99,0.000000,,2013-08-27 07:42:00,
2013-08-27 03:52:00,75.0,71.0,-100.00,SW,225,3.0,-999.0,87,-99.99,,,-99.99,0.000000,,2013-08-27 07:52:00,
2013-08-27 05:00:00,78.0,70.0,-100.00,SW,225,5.0,-999.0,78,-99.99,,,-99.99,0.000000,,2013-08-27 09:00:00,
2013-08-27 05:43:00,78.0,70.0,-100.00,SW,225,5.0,-999.0,78,-99.99,,,-99.99,0.000000,,2013-08-27 09:43:00,
2013-08-27 05:54:00,78.0,70.0,-100.00,SW,225,5.0,-999.0,78,-99.99,,,-99.99,0.000000,,2013-08-27 09:54:00,
2013-08-27 06:00:00,77.0,70.0,-100.00,WSW,247,5.0,-999.0,78,-99.99,,,-99.99,0.000000,,2013-08-27 10:00:00,
2013-08-27 06:43:00,77.0,70.0,-100.00,WSW,247,5.0,-999.0,78,-99.99,,,-99.99,0.000000,,2013-08-27 10:43:00,
2013-08-27 06:53:00,77.0,70.0,-100.00,WSW,247,5.0,-999.0,78,-99.99,,,-99.99,0.000000,,2013-08-27 10:53:00,
2013-08-27 07:00:00,77.0,70.0,-100.00,SW,225,4.0,-999.0,80,-99.99,,,-99.99,0.000000,,2013-08-27 11:00:00,
2013-08-27 07:42:00,77.0,70.0,-100.00,SW,225,4.0,-999.0,80,-99.99,,,-99.99,0.000000,,2013-08-27 11:42:00,
2013-08-27 07:52:00,77.0,70.0,-100.00,SW,225,4.0,-999.0,80,-99.99,,,-99.99,0.000000,,2013-08-27 11:52:00,
2013-08-27 08:00:00,76.0,70.0,-100.00,SW,225,4.0,-999.0,81,-99.99,,,-99.99,8.120000,,2013-08-27 12:00:00,
2013-08-27 08:42:00,76.0,70.0,-100.00,SW,225,4.0,-999.0,81,-99.99,,,-99.99,8.120000,,2013-08-27 12:42:00,
2013-08-27 08:52:00,76.0,70.0,-100.00,SW,225,4.0,-999.0,81,-99.99,,,-99.99,8.120000,,2013-08-27 12:52:00,
2013-08-27 09:00:00,75.0,71.0,-100.00,SSW,202,2.0,-999.0,87,-99.99,,,-99.99,44.080002,,2013-08-27 13:00:00,
2013-08-27 09:42:00,75.0,71.0,-100.00,SSW,202,2.0,-999.0,87,-99.99,,,-99.99,44.080002,,2013-08-27 13:42:00,
2013-08-27 09:52:00,75.0,71.0,-100.00,SSW,202,2.0,-999.0,87,-99.99,,,-99.99,44.080002,,2013-08-27 13:52:00,
2013-08-27 10:00:00,76.0,72.0,-100.00,South,180,3.0,-999.0,87,-99.99,,,-99.99,226.199997,,2013-08-27 14:00:00,
2013-08-27 10:42:00,76.0,72.0,-100.00,South,180,3.0,-999.0,87,-99.99,,,-99.99,226.199997,,2013-08-27 14:42:00,
2013-08-27 10:53:00,76.0,72.0,-100.00,South,180,3.0,-999.0,87,-99.99,,,-99.99,226.199997,,2013-08-27 14:53:00,
2013-08-27 12:00:00,81.0,73.0,-100.00,SSW,202,4.0,-999.0,78,-99.99,,,-99.99,383.959991,,2013-08-27 16:00:00,
2013-08-27 12:46:00,81.0,73.0,-100.00,SSW,202,4.0,-999.0,78,-99.99,,,-99.99,383.959991,,2013-08-27 16:46:00,
2013-08-27 12:55:00,81.0,73.0,-100.00,SSW,202,4.0,-999.0,78,-99.99,,,-99.99,383.959991,,2013-08-27 16:55:00,
2013-08-27 14:00:00,84.0,73.0,-100.00,SSW,202,5.0,-999.0,70,-99.99,,,-99.99,552.159973,,2013-08-27 18:00:00,
2013-08-27 14:42:00,84.0,73.0,-100.00,SSW,202,5.0,-999.0,70,-99.99,,,-99.99,552.159973,,2013-08-27 18:42:00,
2013-08-27 14:53:00,84.0,73.0,-100.00,SSW,202,5.0,-999.0,70,-99.99,,,-99.99,552.159973,,2013-08-27 18:53:00,